This is the latest recevied weather packets stored in our database for station/object W5GBS-9. If no packets are shown the sender has not sent any weather packets the latest 10 day(s).
| Time | Temp. | Humidity | Pressure | Rain* | Wind** | Luminosity | Snow |
|---|---|---|---|---|---|---|---|
| 1788028181 | 33.89° C | 100% | 1014.9 hPa | 0 mm | - | - | - |
| 1788027460 | 34.44° C | 100% | 1014.9 hPa | 0 mm | - | - | - |
| 1788026019 | 34.44° C | 100% | 1015.3 hPa | 0 mm | - | - | - |
| 1788025298 | 34.44° C | 100% | 1015.4 hPa | 0 mm | - | - | - |
| 1788023857 | 33.89° C | 100% | 1015.7 hPa | 0 mm | - | - | - |
| 1788023136 | 33.33° C | 100% | 1015.8 hPa | 0 mm | - | - | - |
| 1788022415 | 33.33° C | 100% | 1016.2 hPa | 0 mm | - | - | - |
| 1788021695 | 32.78° C | 100% | 1016.2 hPa | 0 mm | - | - | - |
| 1788020974 | 32.78° C | 100% | 1016.2 hPa | 0 mm | - | - | - |
| 1788020254 | 32.22° C | 100% | 1016.2 hPa | 0 mm | - | - | - |
| 1788019533 | 31.67° C | 100% | 1016.2 hPa | 0 mm | - | - | - |
| 1788018811 | 31.67° C | 100% | 1016.2 hPa | 0 mm | - | - | - |
| 1788018091 | 31.11° C | 100% | 1016.1 hPa | 0 mm | - | - | - |
| 1788017371 | 31.11° C | 100% | 1016 hPa | 0 mm | - | - | - |
| 1788016650 | 30.56° C | 100% | 1016 hPa | 0 mm | - | - | - |
| 1788015209 | 29.44° C | 100% | 1016 hPa | 0 mm | - | - | - |
| 1788014487 | 28.89° C | 100% | 1016 hPa | 0 mm | - | - | - |
| 1788013767 | 28.33° C | - | - | - | - | - | - |
| 1788013766 | 28.33° C | 100% | 1016 hPa | 0 mm | - | - | - |
| 1788013047 | 27.22° C | 100% | 1015.8 hPa | 0 mm | - | - | - |
| 1788012325 | 26.67° C | 100% | 1015.8 hPa | 0 mm | - | - | - |
| 1788011605 | 26.11° C | 100% | 1015.7 hPa | 0 mm | - | - | - |
| 1788010883 | 25.56° C | 100% | 1015.7 hPa | 0 mm | - | - | - |
| 1788010164 | 25° C | 100% | 1015.6 hPa | 0 mm | - | - | - |
| 1788009443 | 24.44° C | 100% | 1015.5 hPa | 0 mm | - | - | - |
* Rain latest hour (hover to see other rain measurements)
** Current wind speed in m/s (hover to see current wind gust speed)